This is the latest recevied weather packets stored in our database for station/object AJ5AG. If no packets are shown the sender has not sent any weather packets the latest 10 day(s).
| Time | Temp. | Humidity | Pressure | Rain* | Wind** | Luminosity | Snow |
|---|---|---|---|---|---|---|---|
| 1778084499 | 27.78° C | 79% | 1013.6 hPa | 0 mm | - | 166 W/m² | - |
| 1778084196 | 27.78° C | 78% | 1013.5 hPa | 0 mm | - | 188 W/m² | - |
| 1778083893 | 27.78° C | 77% | 1013.5 hPa | 0 mm | - | 221 W/m² | - |
| 1778083590 | 27.78° C | 80% | 1013.3 hPa | 0 mm | - | 195 W/m² | - |
| 1778083287 | 27.78° C | 79% | 1013.3 hPa | 0 mm | - | 211 W/m² | - |
| 1778082986 | 27.22° C | 80% | 1013.2 hPa | 0 mm | - | 155 W/m² | - |
| 1778082683 | 26.67° C | 83% | 1013.4 hPa | 0 mm | - | 178 W/m² | - |
| 1778081545 | 26.67° C | 83% | 1013.1 hPa | 0 mm | - | 166 W/m² | - |
| 1778081241 | 26.67° C | 83% | 1013.4 hPa | 0 mm | - | 137 W/m² | - |
| 1778080939 | 26.67° C | 83% | 1013.2 hPa | 0 mm | - | 138 W/m² | - |
| 1778080638 | 26.11° C | 84% | 1013.1 hPa | 0 mm | - | 217 W/m² | - |
| 1778080334 | 26.11° C | 83% | 1013.4 hPa | 0 mm | - | 130 W/m² | - |
| 1778080030 | 26.11° C | 84% | 1013.4 hPa | 0 mm | - | 118 W/m² | - |
| 1778079727 | 26.11° C | 84% | 1013.4 hPa | 0 mm | - | 90 W/m² | - |
| 1778079424 | 26.11° C | 84% | 1013.2 hPa | 0 mm | - | 123 W/m² | - |
| 1778079121 | 26.11° C | 85% | 1013.3 hPa | 0 mm | - | 130 W/m² | - |
| 1778078819 | 26.11° C | 84% | 1013.2 hPa | 0 mm | - | 136 W/m² | - |
| 1778078515 | 25.56° C | 86% | 1013 hPa | 0 mm | - | 135 W/m² | - |
| 1778078213 | 25.56° C | 86% | 1012.9 hPa | 0 mm | - | 124 W/m² | - |
| 1778077911 | 25.56° C | 87% | 1012.8 hPa | 0 mm | - | 122 W/m² | - |
| 1778077609 | 25.56° C | 87% | 1012.7 hPa | 0 mm | - | 108 W/m² | - |
| 1778077306 | 25.56° C | 87% | 1012.8 hPa | 0 mm | - | 109 W/m² | - |
| 1778077004 | 25.56° C | 87% | 1013 hPa | 0 mm | - | 105 W/m² | - |
| 1778076702 | 25° C | 88% | 1012.9 hPa | 0 mm | - | 104 W/m² | - |
| 1778076399 | 25° C | 88% | 1012.8 hPa | 0 mm | - | 116 W/m² | - |
* Rain latest hour (hover to see other rain measurements)
** Current wind speed in m/s (hover to see current wind gust speed)